Regional Weather Roundup
Issued by NWS

Home | Current Version | Previous Version | Graphics & Text | Print | Product List | Glossary On
Versions: 1 2 3 4 5 6 7 8 9 10 11 12 13 14 15 16 17 18 19 20 21 22 23 24 25 26 27
000
ASUS45 KCYS 291410
RWRWY

WYOMING REGIONAL WEATHER ROUNDUP
NATIONAL WEATHER SERVICE CHEYENNE WY
800 AM MDT MON MAY 29 2017

NOTE:  "FAIR" INDICATES FEW OR NO CLOUDS BELOW 12,000 FEET
WITH NO SIGNIFICANT WEATHER AND/OR OBSTRUCTIONS TO VISIBILITY.

WYZ001-291500-
YELLOWSTONE NATIONAL PARK

CITY           SKY/WX    TMP DP  RH WIND       PRES   REMARKS
LK YELLOWSTONE   N/A     37  34  89 CALM      30.41R
W YELLOWSTONE  NOT AVBL

$$
WYZ002>013-054>058-071-098>099-291500-
NORTHERN WYOMING

CITY           SKY/WX    TMP DP  RH WIND       PRES   REMARKS
JACKSON        SUNNY     45  36  70 N3        30.35R
CODY           FAIR      56  40  55 CALM      30.30S
GREYBULL       FAIR      53  40  61 CALM      30.25R
WORLAND        FAIR      52  48  86 SW5       30.26R
SHERIDAN       FAIR      55  42  61 W8        30.25R
BUFFALO        FAIR      54  40  59 N15G25    30.26S
GILLETTE       CLOUDY    55  37  50 N13       30.23R
HULETT         FAIR      52  34  50 W5        30.22S
NEWCASTLE      FAIR      50  39  66 NW9       30.21R

$$
WYZ014>020-022>026-101>103-291500-
CENTRAL WYOMING

CITY           SKY/WX    TMP DP  RH WIND       PRES   REMARKS
BIG PINEY      FAIR      46  35  65 E7        30.36R
PINEDALE       FAIR      43  34  70 NW3       30.37S
DUBOIS         FAIR      43  32  65 NW9       30.35R
LANDER         FAIR      51  42  71 CALM      30.29R
RIVERTON       FAIR      53  43  68 NW3       30.29R
CASPER         FAIR      51  44  77 W8        30.28R
DOUGLAS        PTSUNNY   53  44  71 W10       30.26R

$$
WYZ021-027>030-104>119-291500-
SOUTHERN WYOMING

CITY           SKY/WX    TMP DP  RH WIND       PRES   REMARKS
EVANSTON       FAIR      48  36  63 VRB3      30.32R
KEMMERER         N/A     50  36  57 NE7       30.35R
ROCK SPRINGS   FAIR      50  38  63 NE5       30.33R
DIXON            N/A     50  34  54 E6        30.32S
RAWLINS        FAIR      49  39  68 VRB5      30.33R
SARATOGA       FAIR      48  36  61 SE8       30.34R
LARAMIE        FAIR      46  37  71 S5        30.31S
CHEYENNE       FAIR      55  38  52 NW7       30.28R
TORRINGTON     FAIR      55  44  66 W7        30.20R
PINE BLUFFS    FAIR      55  41  58 NW9       30.25S

$$




USA.gov is the U.S. government's official web portal to all federal, state and local government web resources and services.